Theta_e
300 299 298 299 300 300 302 303 304 305 304 304 304 306 309 311 312 312 313 314 314 315 315 315 314 313 311 310 307 305 303 301 301 301 304 307 309 314 317 319 320 321 321 321 320 319 318 318 318 318 318 318 318 321 321 324 327 326 332 336 336 338 338 335 336 329 325 331 324 316 317 321 322 319 319 320 321 321 321 321 321 323 324 323 325 325 324 321
301 300 299 298 299 299 300 301 303 304 305 305 304 305 306 309 311 311 312 313 314 314 315 315 315 314 312 311 309 306 304 302 301 300 301 302 303 307 312 317 319 320 321 321 321 321 320 319 318 318 318 317 320 323 322 324 325 328 334 334 337 341 335 328 329 325 323 325 320 317 318 320 322 319 319 321 321 321 322 322 321 322 322 323 324 324 325 322
301 301 300 299 299 299 299 300 302 303 305 305 305 305 305 307 309 310 311 312 313 314 315 316 315 315 313 312 310 306 304 303 302 301 301 301 301 301 304 311 317 320 321 321 321 322 322 320 318 317 318 318 320 323 323 325 325 326 329 334 340 336 328 325 325 326 325 323 319 318 319 319 320 320 320 321 320 322 323 322 321 321 321 322 324 324 325 323
301 301 301 300 301 300 300 300 301 303 304 305 305 305 305 305 306 308 310 310 312 313 314 315 315 315 314 313 310 305 306 305 303 304 304 304 303 303 303 304 312 318 320 321 321 322 322 321 319 316 319 321 321 323 324 325 325 325 327 335 338 328 327 329 326 327 325 322 319 318 319 319 319 320 320 319 322 323 321 321 321 321 320 321 323 324 325 323
302 302 301 301 301 301 301 301 301 302 303 304 305 305 305 305 304 306 308 309 311 312 313 314 315 315 315 313 309 305 307 307 307 311 314 314 311 309 309 307 309 315 317 319 320 321 322 322 320 317 321 324 323 325 326 324 324 326 326 329 329 325 328 329 326 328 325 322 319 317 319 320 320 320 320 320 324 325 321 320 321 320 320 320 320 322 323 323
301 302 302 302 302 301 301 301 301 301 302 303 304 305 306 306 305 305 307 308 310 311 312 313 314 315 315 314 309 305 306 307 312 318 319 319 318 315 316 314 313 314 315 318 319 321 322 322 321 318 322 327 326 326 326 324 324 327 327 323 324 326 327 328 327 327 326 324 321 319 320 320 319 320 320 319 322 323 321 321 321 320 320 319 320 321 322 322
301 301 301 302 302 302 302 301 301 301 302 303 304 305 305 306 306 306 307 308 309 310 312 313 314 315 315 315 310 307 306 306 313 319 320 320 318 317 318 318 316 316 316 317 319 320 322 323 322 318 323 328 326 325 325 324 323 325 327 324 324 326 325 327 327 327 327 326 325 323 321 319 320 321 320 319 321 321 320 322 321 321 320 319 320 320 320 320
301 301 301 302 302 302 302 302 302 301 302 303 304 304 305 305 306 306 306 307 308 309 311 312 313 314 315 315 311 308 307 308 310 313 317 320 318 317 317 317 317 318 318 318 318 320 321 323 322 319 322 326 323 324 325 324 325 326 327 324 324 325 325 327 326 327 327 326 327 324 321 320 321 321 320 319 321 321 320 323 322 321 320 319 320 319 319 319
301 301 301 302 302 302 302 302 302 302 302 302 303 303 304 305 305 306 306 307 307 308 310 311 312 313 315 315 311 308 309 311 311 310 311 314 317 318 317 317 317 317 319 320 319 320 321 323 323 320 320 322 323 325 324 324 326 324 325 324 324 325 325 326 326 327 327 326 327 324 321 321 321 323 323 322 322 322 322 323 323 322 321 320 321 320 320 319
301 301 301 301 301 301 301 302 302 302 302 302 303 303 303 304 305 305 306 306 307 307 309 310 312 313 314 315 311 309 311 312 311 310 308 307 312 317 316 315 315 316 318 320 321 320 321 323 323 321 320 322 322 323 323 324 325 323 324 323 323 325 324 325 325 326 327 325 325 325 325 322 321 324 327 325 324 324 323 323 323 323 323 322 322 322 321 321
301 301 301 301 301 301 301 302 302 302 302 302 303 302 303 303 304 305 305 306 306 307 309 310 311 312 314 314 311 310 312 312 310 311 310 305 305 310 313 312 313 314 315 318 321 321 321 322 323 321 321 322 320 321 322 322 323 322 323 324 324 324 324 323 324 325 325 326 325 325 326 323 323 326 328 327 325 326 324 323 323 323 324 324 324 324 323 323
301 301 301 301 301 301 301 302 302 302 302 302 302 302 303 303 304 305 305 306 306 306 308 309 310 311 313 314 313 312 313 313 312 312 311 308 304 304 307 309 311 313 315 316 319 320 320 321 322 322 321 321 320 319 320 321 321 321 323 328 327 325 325 324 323 324 324 326 325 324 327 327 326 328 328 326 327 327 326 325 324 323 324 325 325 325 324 324
301 301 301 301 301 301 301 302 302 302 302 302 302 303 303 303 304 305 305 305 306 306 307 308 309 310 312 314 314 314 314 313 313 313 312 311 308 304 304 306 308 312 314 315 318 320 320 321 322 322 322 322 322 320 321 320 318 320 322 327 329 327 329 326 323 324 324 325 325 325 329 331 329 327 326 327 327 327 327 326 326 325 325 325 326 326 325 325
300 301 301 302 302 302 302 302 302 302 302 302 302 302 303 303 303 304 305 305 306 306 306 307 309 310 312 314 313 314 314 313 313 313 313 313 311 306 304 306 308 309 312 315 319 321 321 322 321 323 323 323 324 322 323 322 320 323 322 323 329 330 331 328 322 323 325 325 324 326 329 332 333 327 325 327 327 326 327 327 327 326 326 327 327 327 327 326
300 301 301 301 302 302 302 302 302 302 302 302 302 302 303 303 303 304 304 305 306 306 306 307 308 309 311 313 312 313 314 313 313 313 313 312 312 309 305 309 311 310 312 315 319 322 323 323 322 323 323 323 324 323 326 326 324 326 325 326 329 328 329 329 322 320 326 326 322 327 331 332 334 329 326 327 327 326 326 327 327 327 327 327 327 327 327 327
301 301 301 301 301 302 302 302 302 302 302 302 302 302 302 303 303 304 304 305 305 306 306 307 308 309 310 311 311 311 313 313 313 313 313 312 312 310 306 310 315 314 314 316 319 322 323 324 323 324 323 323 324 325 326 326 324 324 325 327 328 326 327 328 322 318 324 327 323 325 332 335 332 326 326 327 326 326 325 326 327 326 327 327 327 327 327 328
301 301 301 301 301 301 302 302 302 302 302 302 302 302 302 303 303 303 304 304 305 306 306 307 309 309 310 310 310 310 311 312 313 312 313 312 312 311 306 310 316 317 318 318 320 322 323 324 324 324 323 322 324 325 325 325 325 324 324 325 325 325 325 324 324 320 321 327 326 325 328 334 335 327 325 327 326 326 325 326 327 327 327 327 327 327 327 327
302 302 302 302 302 301 302 302 302 302 302 302 302 302 303 303 303 303 304 304 305 306 306 306 308 309 310 310 310 310 311 311 312 312 312 311 312 311 306 308 315 319 320 321 321 322 323 322 323 323 324 323 323 324 323 322 322 322 323 324 323 324 324 323 326 323 321 326 328 328 327 328 333 329 324 325 325 324 324 326 327 326 327 327 327 327 327 327
303 304 303 303 302 302 302 302 302 302 302 303 302 302 303 303 303 303 304 304 304 305 306 306 307 308 309 309 309 310 310 310 311 311 311 310 311 310 305 306 313 317 320 321 320 322 322 322 322 324 325 324 323 323 321 319 320 321 322 323 322 323 322 324 329 326 322 327 328 328 328 325 327 328 325 324 324 322 323 325 325 325 326 326 327 326 326 326
304 304 304 304 303 302 302 302 302 301 302 303 303 303 303 303 303 303 303 304 304 305 305 307 307 308 308 308 308 309 310 310 310 310 310 310 310 308 304 305 311 315 319 320 320 321 321 323 324 325 325 323 322 322 321 321 321 319 319 321 323 323 322 323 329 326 321 326 329 326 327 326 326 326 324 324 323 321 320 321 322 324 325 326 326 326 325 325
303 303 304 304 304 303 303 302 302 302 302 302 303 303 303 303 303 303 304 304 304 304 304 305 306 307 308 309 308 308 309 309 309 310 309 309 309 307 305 307 312 315 317 319 320 321 322 323 324 323 322 322 321 321 321 322 321 320 320 321 322 322 322 322 326 325 320 323 328 326 327 327 325 326 323 322 323 321 320 320 321 323 325 326 325 325 325 325
303 303 303 304 304 304 303 303 303 302 302 303 303 303 303 303 302 303 304 304 304 304 304 304 305 306 307 308 309 308 308 308 309 309 308 308 307 306 307 311 313 315 316 318 319 321 323 324 323 322 321 321 320 320 321 321 321 321 321 320 320 321 321 323 324 323 319 323 328 327 327 325 324 326 323 320 321 322 322 322 322 323 324 325 325 326 326 325
302 303 303 303 304 304 304 304 303 303 303 303 303 303 303 303 302 302 303 304 304 304 304 304 304 305 305 307 308 308 307 308 309 308 308 308 307 305 309 312 313 314 316 318 319 321 323 323 321 321 321 320 320 320 321 322 322 322 321 319 319 320 321 322 322 321 319 323 325 324 324 323 323 323 321 319 318 320 322 323 323 323 323 325 326 326 327 325
301 303 303 303 303 304 304 304 304 304 304 303 302 302 303 302 302 302 303 303 304 304 304 305 305 305 305 305 306 307 308 308 308 309 308 309 308 307 310 312 312 313 315 316 318 320 322 323 321 321 321 320 320 320 320 322 322 321 322 320 319 321 321 320 321 322 320 321 320 320 323 322 321 322 320 318 317 317 318 320 321 322 323 324 325 326 326 325
301 302 303 303 303 303 304 304 305 305 304 303 302 302 302 302 302 302 303 302 303 304 304 304 305 306 305 305 306 307 308 307 308 309 309 309 308 308 311 312 312 312 313 315 318 319 320 320 321 321 322 320 320 320 320 321 321 321 321 321 319 321 321 320 321 321 322 323 321 321 325 324 322 322 321 319 320 318 316 316 318 320 322 322 322 323 323 323
301 301 302 303 303 303 303 304 304 304 304 303 303 303 302 302 302 302 302 302 303 304 304 304 306 306 306 307 307 307 308 308 307 309 309 309 308 308 310 313 313 312 312 314 317 319 319 319 321 322 321 321 320 320 320 320 321 321 321 321 319 320 322 322 321 321 324 325 320 320 324 325 323 323 322 319 320 320 318 318 317 317 319 320 320 320 320 321
301 301 302 303 302 302 303 304 304 304 305 304 303 303 302 302 303 302 301 302 303 304 305 305 305 306 306 307 307 307 308 308 307 308 309 309 309 308 310 312 313 312 313 314 316 318 319 319 321 322 320 321 321 320 320 320 321 321 321 322 319 319 321 322 321 321 323 322 320 320 321 323 322 322 323 321 319 319 318 318 317 315 317 318 319 319 319 320
301 301 302 302 301 301 303 303 303 304 304 304 303 303 303 302 302 302 301 302 303 303 304 305 305 306 306 307 307 307 308 309 309 309 309 309 310 310 311 312 312 313 313 315 315 317 319 319 320 321 320 320 320 320 320 319 320 322 324 324 321 319 320 322 320 321 321 321 322 322 321 321 321 321 323 322 320 319 317 317 316 314 315 317 318 319 319 319
302 301 302 302 301 301 302 303 303 304 304 304 304 303 303 303 302 302 302 302 303 303 304 306 306 306 307 307 307 306 307 309 310 311 310 310 310 311 311 311 311 312 313 314 314 315 318 318 318 319 321 320 319 320 320 320 320 321 323 323 321 320 320 321 321 322 322 322 322 323 321 321 320 320 322 321 319 318 316 318 317 313 314 316 317 318 318 318
302 302 302 301 301 302 302 303 303 303 303 304 304 303 303 303 301 301 302 301 302 303 304 305 305 306 307 307 307 307 308 309 310 312 312 311 311 311 311 310 311 313 313 314 314 314 315 315 316 318 319 319 320 319 318 319 319 319 320 320 321 321 321 322 323 323 324 323 323 323 322 321 320 320 320 319 321 319 317 319 319 316 315 316 317 317 318 318
302 302 302 302 302 301 302 303 303 303 304 304 304 304 303 302 301 301 301 299 300 303 305 304 305 306 306 308 308 307 308 309 310 312 312 311 311 311 311 310 311 313 314 314 314 314 314 314 316 317 317 317 320 320 317 316 317 317 320 321 320 320 321 321 322 322 324 324 324 323 321 320 320 320 320 321 323 322 318 319 321 320 317 317 318 318 318 319
302 302 302 302 302 301 302 303 303 303 304 303 303 303 302 302 302 301 301 299 300 304 306 306 305 306 306 307 308 307 308 309 310 311 312 311 311 311 310 310 311 312 312 312 313 313 313 313 315 316 316 316 319 320 317 315 316 317 319 321 321 321 322 322 322 323 324 324 322 322 321 320 320 319 321 321 321 320 316 315 317 318 316 317 319 319 318 319
302 302 302 302 302 301 301 302 302 303 303 303 303 302 302 302 302 302 301 300 302 303 306 307 305 306 306 306 307 307 308 309 309 309 311 311 311 311 310 309 309 310 312 312 311 312 312 312 314 316 316 316 318 320 319 317 317 317 318 319 320 322 323 323 322 322 323 322 321 322 321 321 320 318 319 319 318 317 314 313 315 315 316 317 318 318 319 319
302 302 302 302 302 301 301 301 301 302 303 302 303 302 302 302 302 302 301 301 302 302 304 307 306 306 306 306 306 307 307 309 309 309 310 310 310 311 310 310 309 310 313 313 310 311 311 310 313 314 315 317 317 318 319 318 317 317 317 318 320 322 322 323 322 322 323 321 319 319 320 320 320 319 320 316 313 315 314 314 316 315 316 317 317 318 318 318
303 303 302 302 302 302 301 301 301 302 302 302 302 303 303 302 302 302 301 301 303 304 305 306 305 306 307 306 306 307 307 308 309 309 310 310 310 311 310 310 310 309 311 311 309 310 309 309 312 313 314 317 317 316 316 318 319 318 317 318 319 321 321 322 323 322 323 322 319 319 321 321 319 319 319 315 313 315 314 314 315 315 315 315 316 317 317 318
303 302 302 302 302 302 301 302 302 302 302 302 302 303 303 303 302 302 301 301 302 304 304 304 304 306 306 306 307 307 306 306 308 310 310 310 310 310 309 309 310 309 309 308 309 311 309 310 314 313 313 316 316 316 315 317 320 319 318 319 319 320 320 322 323 321 321 323 322 320 322 322 319 318 318 317 318 319 317 314 313 313 315 315 315 315 316 317
302 302 302 301 301 301 301 302 301 301 301 301 302 303 303 303 302 301 301 301 301 302 303 303 304 306 306 305 306 307 306 306 307 309 310 310 310 309 309 309 309 309 309 306 308 311 309 307 311 313 314 314 313 315 314 313 317 320 319 318 318 318 318 319 321 321 320 322 323 321 321 320 320 321 321 319 319 321 322 319 314 312 313 314 314 315 315 316
302 301 301 301 300 301 301 301 301 301 301 301 302 303 302 302 301 301 301 302 302 302 302 302 303 306 307 306 306 306 306 307 307 308 309 310 311 309 309 309 309 309 309 306 307 311 309 306 309 312 313 314 314 316 316 313 314 317 315 314 316 319 319 318 320 322 322 322 322 322 321 320 320 320 321 322 320 319 322 322 319 316 313 312 314 314 314 315
301 300 300 300 300 300 301 301 301 301 301 301 302 302 301 301 301 300 301 303 303 302 302 302 302 306 308 307 306 306 307 307 307 308 309 310 311 310 309 310 310 309 309 307 307 311 309 306 309 310 311 315 317 317 317 316 314 313 313 314 315 317 319 320 319 321 324 322 321 323 323 324 323 319 321 326 324 321 321 322 322 318 313 313 314 314 315 315
300 299 300 300 300 300 300 300 301 301 301 302 302 302 301 301 301 300 300 303 303 302 302 302 302 304 307 307 307 306 307 307 308 308 309 309 310 310 308 309 310 310 309 307 308 312 311 307 308 310 310 314 317 317 315 316 315 315 316 317 316 316 317 319 319 321 324 322 321 322 322 325 326 321 320 322 322 323 322 322 322 316 312 313 314 314 315 315
299 299 299 299 300 300 300 300 300 300 301 302 301 301 302 302 302 301 301 302 303 302 302 303 304 304 305 306 306 306 306 307 307 308 308 309 310 310 309 309 310 310 310 309 309 312 313 309 307 311 312 313 316 315 313 315 316 316 317 317 317 318 318 319 320 322 323 322 322 322 321 325 325 319 318 321 323 323 319 317 319 314 312 314 314 315 315 315
300 299 299 299 300 300 300 301 301 300 300 301 300 301 302 302 302 302 303 303 304 303 302 304 306 305 304 305 305 306 306 306 306 307 308 308 309 310 309 308 309 310 310 311 310 309 312 311 308 311 315 314 314 311 308 314 317 316 315 317 317 318 318 319 321 321 321 321 322 321 322 326 322 316 319 321 319 316 311 310 314 313 312 314 314 315 316 315
299 298 299 300 300 300 299 300 301 300 300 299 299 301 302 302 302 302 303 303 303 303 303 304 304 305 306 305 305 306 306 306 306 307 307 308 308 308 308 307 309 311 311 311 310 308 310 312 310 312 315 313 313 310 307 311 315 315 316 316 316 317 317 319 319 317 318 320 322 321 322 324 319 315 315 311 308 310 309 309 311 312 313 314 314 315 316 315
298 298 299 300 300 300 299 299 300 300 300 299 299 301 301 301 301 302 303 303 303 305 305 305 304 305 306 306 305 306 306 306 306 306 306 307 307 306 307 308 309 311 311 310 311 310 310 312 311 312 314 312 313 314 312 311 312 315 316 315 315 316 316 316 316 314 315 318 321 321 322 325 323 319 316 313 313 315 312 310 311 311 313 314 314 315 315 315
298 298 298 299 300 300 299 299 300 300 300 300 300 301 301 301 301 302 302 302 303 305 305 304 304 304 305 305 305 305 305 306 306 306 306 307 307 305 305 308 309 310 310 310 310 310 310 312 311 310 312 311 311 313 314 313 313 314 315 314 314 315 315 315 316 316 317 319 320 320 322 327 328 325 323 323 323 321 314 310 310 311 312 313 314 314 314 315
298 298 298 298 299 299 299 299 299 299 300 300 300 301 301 302 302 301 301 301 302 303 303 303 303 304 304 304 305 305 305 305 305 306 305 306 308 306 305 308 309 308 309 309 310 309 310 312 311 310 311 310 310 313 315 314 314 313 315 315 314 314 314 315 316 316 316 318 319 319 321 324 325 324 323 322 322 323 321 314 310 311 312 312 313 314 314 315
298 298 298 298 298 299 299 298 298 299 300 300 300 301 301 301 302 301 301 301 301 302 303 303 303 305 305 305 306 306 306 306 306 305 305 305 307 306 305 307 308 309 309 309 309 309 309 311 310 310 311 310 312 316 316 314 314 314 314 315 315 314 314 315 315 315 315 316 316 318 320 321 320 319 319 317 316 321 323 316 312 313 313 312 313 314 314 314
298 298 297 297 299 299 300 299 299 299 300 300 301 301 301 301 302 302 302 302 301 302 303 303 303 305 306 306 306 306 306 307 306 306 306 305 306 307 306 306 306 308 309 308 308 309 310 310 310 310 311 310 311 314 315 314 314 314 313 314 314 314 314 314 315 315 315 315 315 316 319 319 317 316 316 315 314 315 316 314 313 314 313 312 313 313 313 313
298 298 298 298 299 299 299 299 299 299 300 300 301 301 301 301 301 302 303 303 302 302 303 304 304 305 305 306 306 306 306 306 306 306 306 306 306 307 308 307 306 306 308 309 308 308 309 310 310 309 310 310 310 312 314 314 313 313 313 313 313 314 314 314 315 315 315 315 315 316 318 317 316 317 317 314 313 312 312 312 312 313 312 312 312 312 312 313
299 299 298 298 298 298 298 299 299 300 300 300 301 301 301 301 301 302 303 303 303 303 302 303 304 304 304 305 305 305 305 306 307 307 306 305 306 306 307 308 308 306 307 309 308 306 308 311 309 309 310 310 309 311 313 313 314 313 313 312 311 312 314 314 314 315 314 315 315 315 316 315 315 317 316 312 310 311 311 311 312 313 313 313 312 312 312 313
299 299 299 299 299 299 299 299 299 300 300 301 301 301 301 301 301 302 303 302 303 304 303 302 303 304 304 304 305 305 304 305 306 306 305 305 305 306 306 307 308 308 307 308 306 305 307 309 309 309 310 309 309 310 311 310 311 310 311 311 311 311 313 314 314 314 314 315 315 315 315 314 314 315 313 311 311 312 310 310 311 312 313 313 313 313 313 314
299 299 299 299 299 300 301 300 300 300 301 301 301 301 302 302 301 301 303 303 302 302 303 302 303 304 304 304 304 304 304 304 305 305 305 305 304 305 306 305 306 308 309 307 306 305 306 309 309 309 310 310 309 309 309 309 309 309 309 310 311 311 312 313 314 314 314 315 315 315 315 314 313 315 314 313 315 316 312 311 312 313 313 313 313 314 315 315
Wind_Speed
18 19 21 23 24 24 23 22 21 20 20 22 23 25 24 22 20 19 18 18 18 17 16 15 15 15 15 16 17 18 20 22 24 27 31 32 29 26 23 21 15 10 12 14 15 17 17 14 13 13 13 11 8 7 7 6 6 4 2 2 2 3 4 4 6 5 2 3 4 6 13 10 5 8 10 7 6 7 11 12 9 13 14 9 10 8 9 14
18 18 19 20 23 24 24 24 22 21 21 21 22 24 25 25 22 20 19 18 18 18 17 16 15 15 15 15 17 19 21 22 25 30 31 28 28 28 25 23 19 14 14 15 12 12 14 13 12 13 13 11 8 8 7 6 8 5 3 2 4 5 5 5 7 6 3 3 4 6 11 10 7 11 13 6 4 7 8 10 9 12 14 11 12 10 10 15
20 20 19 18 20 22 24 24 23 22 22 21 21 22 24 25 25 22 21 19 18 18 18 16 15 15 16 15 15 18 19 22 26 30 28 26 28 27 25 25 20 15 17 17 15 13 12 10 10 10 11 10 9 10 7 6 7 5 3 2 5 6 4 6 8 7 5 5 4 6 10 8 8 14 14 7 4 5 7 10 10 13 16 14 13 12 12 15
21 21 21 19 19 20 22 23 23 23 23 23 22 21 22 24 25 25 23 21 20 18 18 17 15 14 15 15 15 16 15 18 21 20 21 23 24 20 19 21 19 16 17 18 17 16 13 10 9 9 8 8 9 9 7 8 8 4 6 4 5 6 4 7 9 7 5 4 5 6 8 6 9 14 13 9 5 3 11 17 16 13 16 16 15 13 14 16
21 21 21 21 20 20 21 22 23 23 23 23 22 21 21 22 25 26 25 23 21 19 18 17 17 14 13 15 14 12 9 9 6 6 12 15 14 10 7 11 16 17 19 19 18 18 16 12 10 8 6 5 6 5 6 13 11 4 7 8 5 7 4 7 6 4 4 1 3 6 5 6 10 11 13 14 8 6 12 17 17 13 12 14 16 15 16 17
21 21 21 21 21 21 21 22 23 23 23 23 23 22 22 21 23 24 25 25 22 21 19 17 18 15 13 14 13 10 5 3 1 3 3 5 4 4 7 8 13 19 21 19 18 18 16 14 10 7 4 3 5 6 6 14 14 5 6 8 9 9 6 6 5 3 3 0 2 4 4 7 10 7 12 16 13 11 9 11 14 14 12 12 15 16 17 17
21 21 21 21 21 21 21 21 22 23 23 23 23 22 22 22 22 22 24 25 23 21 19 18 18 16 14 12 14 12 13 17 8 4 7 5 3 7 8 6 6 14 21 20 19 18 15 13 12 9 4 2 5 7 8 12 12 8 5 6 11 14 12 13 10 7 6 4 4 2 4 7 10 6 8 15 19 15 9 8 11 15 14 13 15 17 17 17
20 20 20 20 20 21 21 20 21 22 22 22 22 22 22 22 22 22 22 24 24 21 20 19 18 18 15 13 16 14 20 29 20 8 5 5 4 6 4 2 1 5 13 20 21 18 17 14 14 11 4 3 4 5 8 8 7 8 7 6 9 13 17 18 15 13 13 11 8 4 5 8 11 7 6 14 17 14 11 8 8 12 16 15 15 16 17 17
20 20 20 20 20 20 20 20 20 21 22 22 22 22 22 22 22 22 22 22 23 22 21 20 18 18 15 17 16 13 23 30 23 20 17 11 6 4 5 5 6 7 6 14 19 20 19 15 15 12 5 5 5 4 6 6 5 7 11 10 8 12 15 14 14 16 15 13 8 5 7 8 9 5 5 13 13 10 12 9 6 8 13 15 15 16 17 17
19 19 19 19 20 20 19 19 20 20 21 21 21 21 22 22 22 22 22 22 22 22 21 20 19 18 17 21 16 11 21 23 18 19 19 20 18 11 13 14 12 10 7 7 15 20 20 16 13 11 8 7 5 5 5 5 4 5 11 14 10 14 13 8 11 14 13 11 9 8 8 7 7 4 5 10 11 10 12 11 9 8 10 12 13 15 17 17
19 19 19 19 19 20 19 19 19 20 20 20 20 21 22 22 22 22 21 21 22 22 21 20 19 18 20 24 20 16 20 19 17 16 14 18 22 20 20 19 17 14 10 8 10 18 21 19 11 7 7 5 4 5 6 6 6 7 7 9 10 13 12 7 8 11 9 7 11 12 7 5 4 3 7 10 9 11 13 13 12 12 10 11 12 14 16 17
18 18 18 18 18 19 19 18 18 19 19 19 19 20 21 22 22 21 21 21 21 21 22 20 19 18 21 26 31 30 29 26 22 19 17 16 18 22 22 21 20 16 12 9 8 12 19 21 15 9 6 4 3 3 5 7 7 7 2 3 6 7 9 11 10 10 10 4 8 10 3 6 4 6 14 13 10 10 13 14 14 14 13 12 13 14 16 16
18 18 18 18 18 18 18 18 18 18 18 19 19 19 20 21 21 21 21 21 20 21 21 20 20 19 20 27 34 35 34 33 30 25 22 20 18 19 20 21 21 17 15 10 6 7 13 19 19 15 10 4 2 2 6 8 4 5 2 2 2 3 7 13 12 8 9 6 8 10 3 7 6 12 20 16 13 13 13 15 16 17 16 15 16 16 17 17
18 18 18 18 18 18 18 18 18 18 18 18 18 19 19 20 20 20 21 21 21 20 20 20 19 17 21 29 32 31 32 32 32 30 27 24 22 20 18 18 19 19 15 11 7 5 8 14 19 18 14 10 6 6 8 6 1 3 2 1 2 3 5 8 11 11 8 7 11 12 5 8 6 14 23 19 16 16 16 18 19 20 19 19 19 19 20 20
19 19 18 18 18 18 18 18 18 18 17 17 18 18 19 20 20 20 20 21 21 19 20 21 20 17 18 27 28 27 32 31 31 32 27 23 24 24 19 15 15 17 15 12 10 8 7 11 17 16 10 10 9 5 5 3 2 1 4 3 3 6 5 5 8 15 12 7 12 12 5 6 5 12 19 20 20 18 19 21 21 22 22 22 22 21 21 20
19 19 19 19 19 19 19 18 18 18 17 17 17 18 19 19 20 20 20 21 21 19 19 19 21 19 14 17 20 21 28 33 33 33 28 25 25 25 21 13 11 14 13 13 12 11 10 13 17 16 9 5 4 1 2 3 3 2 5 5 5 7 5 4 4 12 16 7 8 10 4 2 5 13 19 18 21 22 21 23 24 24 25 24 23 22 22 21
21 21 21 21 20 20 20 19 19 18 17 17 17 17 18 19 20 21 21 20 19 19 19 15 14 16 15 17 18 18 22 27 29 30 28 27 25 24 23 15 9 10 13 14 13 12 14 16 13 11 10 5 3 4 1 4 6 4 5 5 4 5 6 4 2 5 11 7 7 8 6 6 4 10 18 19 22 23 22 25 27 26 27 27 25 24 25 25
22 22 22 22 22 21 21 20 20 18 17 16 17 17 18 18 19 20 20 20 20 17 17 17 13 9 13 19 19 19 22 22 24 25 25 24 23 24 23 18 10 7 10 11 11 12 14 14 10 5 5 5 4 6 9 12 11 8 7 6 5 4 6 6 2 3 6 5 7 7 8 11 7 7 13 18 21 22 24 28 29 28 28 27 26 27 27 29
23 24 24 24 23 22 21 21 20 19 18 17 17 17 17 18 18 19 20 20 17 12 7 13 18 11 2 2 8 17 22 20 18 20 22 20 19 20 21 19 13 9 7 6 7 12 12 7 7 5 5 10 11 13 15 10 7 9 9 8 7 5 5 5 4 5 7 6 8 10 10 10 10 11 13 17 18 19 24 27 27 27 27 26 27 28 28 30
24 25 25 25 25 24 22 21 20 19 18 18 18 16 15 13 10 12 16 20 22 20 13 10 18 21 11 5 8 4 14 16 13 14 17 18 17 17 18 18 13 10 7 5 5 10 12 6 5 9 11 15 15 15 11 2 1 5 6 6 6 5 5 4 4 6 5 6 9 12 12 11 12 12 16 22 19 16 19 20 23 26 28 29 29 28 28 29
25 26 26 26 26 25 24 23 21 19 19 21 19 16 14 11 6 4 7 14 22 26 27 23 19 23 24 15 7 6 3 10 13 15 13 14 17 14 15 16 9 7 9 8 5 6 10 7 9 15 16 14 12 12 9 5 3 2 3 5 4 5 5 4 6 5 2 5 7 8 10 13 12 10 14 19 15 13 19 20 22 28 31 31 30 29 29 29
26 26 26 27 26 26 25 24 22 20 20 22 20 20 19 16 13 10 5 6 14 19 25 30 29 28 29 26 14 2 1 4 12 20 15 14 18 14 14 14 8 6 7 7 5 4 6 8 14 18 12 9 9 10 11 11 7 1 2 4 4 4 3 3 4 4 2 4 5 5 8 11 10 9 12 14 14 17 24 26 26 29 30 31 30 30 32 32
27 27 26 26 26 26 26 25 24 21 21 23 24 24 23 19 17 16 11 7 11 15 19 24 28 34 35 32 24 11 4 5 9 17 19 18 21 19 15 12 9 8 6 7 8 7 5 7 14 13 8 10 10 9 10 8 6 5 4 4 4 3 4 4 4 3 2 3 2 2 5 7 6 6 9 17 20 19 24 29 29 29 28 30 33 33 35 36
28 27 25 24 23 24 25 25 24 23 23 26 27 26 24 21 17 15 13 6 7 12 18 21 22 31 37 33 29 21 12 12 11 12 20 23 21 17 14 12 11 8 7 12 13 11 9 5 5 9 10 12 11 8 9 7 7 9 8 8 5 3 5 5 3 2 2 2 1 1 6 7 7 8 8 13 15 15 21 25 27 31 32 32 35 36 37 38
28 27 25 23 22 22 23 23 25 25 25 27 28 26 24 21 17 14 9 4 4 7 12 16 17 26 33 28 27 24 13 14 17 14 19 28 24 14 11 12 10 8 11 14 11 10 14 8 5 10 10 11 11 9 11 10 7 8 10 12 9 4 5 3 1 2 2 4 3 2 5 8 5 9 10 8 8 10 15 17 23 32 34 34 36 37 39 38
28 27 25 22 21 20 20 22 25 25 26 30 29 26 23 19 17 14 6 2 4 3 4 10 12 16 22 21 24 21 9 14 25 20 17 27 29 17 10 9 6 9 12 9 6 4 10 9 6 8 9 11 11 10 12 11 8 8 8 10 7 5 6 5 4 3 3 5 3 2 6 8 3 5 9 8 10 14 12 12 20 28 30 32 35 37 38 37
28 27 24 22 21 19 19 21 23 23 27 31 28 24 20 17 18 12 3 2 5 5 6 9 11 10 14 18 25 20 5 11 23 25 22 24 28 20 9 7 6 8 7 5 6 3 5 12 9 7 8 9 10 10 11 13 10 7 4 10 9 8 7 5 5 4 3 2 3 2 3 7 7 6 7 8 10 14 12 12 16 21 27 32 35 37 38 39
29 27 24 22 20 20 22 23 24 25 27 28 24 20 18 18 18 7 3 3 3 4 3 8 13 12 12 18 29 24 8 7 8 17 26 26 26 18 7 10 10 6 5 7 8 3 3 11 11 9 8 5 9 11 11 14 10 5 8 11 11 10 6 5 5 5 2 0 2 2 1 4 10 6 4 6 8 13 14 13 13 18 26 32 36 40 41 43
29 27 24 22 20 20 22 24 27 28 26 26 23 17 15 19 15 5 2 5 1 2 2 5 10 10 14 17 24 25 13 9 6 7 19 24 26 16 4 11 11 4 2 5 8 6 0 4 7 9 7 5 8 8 9 14 10 5 8 7 6 8 7 5 5 3 1 2 7 6 4 5 10 6 4 4 8 14 14 9 10 17 27 34 38 42 44 45
29 27 23 20 21 21 21 23 27 28 25 24 22 17 17 18 9 3 5 4 2 0 2 4 4 7 14 12 12 17 12 9 8 9 14 20 27 18 3 7 9 5 2 3 7 9 2 2 1 5 8 8 7 4 5 12 10 7 7 4 5 4 4 3 2 3 2 6 9 10 9 6 9 7 6 6 7 10 9 6 8 13 23 32 36 39 41 41
28 26 22 21 22 22 21 22 24 26 27 25 23 21 20 13 5 3 6 1 3 1 2 2 2 6 14 11 7 11 8 6 8 11 10 11 16 14 4 5 6 4 4 4 6 10 6 2 2 2 4 5 6 4 1 2 3 5 6 5 3 1 1 2 1 3 5 8 9 12 11 9 11 9 5 5 7 7 8 9 8 9 18 29 34 36 37 37
28 25 22 22 24 23 23 21 20 24 26 26 26 27 18 5 3 5 3 3 2 3 1 3 4 6 12 11 7 10 10 6 6 7 9 8 8 11 8 7 7 5 6 8 8 9 8 6 3 2 2 3 5 5 1 3 1 3 5 7 6 3 3 4 4 5 7 8 5 8 10 8 12 12 7 8 8 5 7 9 11 13 19 27 32 34 35 34
27 24 22 24 25 24 22 18 17 21 25 28 29 23 10 3 6 7 5 2 1 3 1 1 6 8 10 9 6 9 10 8 7 6 9 10 8 11 12 8 9 6 4 8 9 5 5 5 4 2 3 6 8 6 4 2 4 6 6 8 8 6 5 6 6 4 5 6 1 4 8 5 8 10 12 16 14 13 17 17 17 18 21 26 29 31 33 34
23 22 23 25 24 22 20 17 16 19 24 32 27 14 6 6 5 6 7 6 3 2 1 1 5 10 10 8 6 9 7 6 9 9 7 7 4 7 10 7 8 5 3 5 7 6 7 7 7 8 6 9 10 7 4 4 6 8 6 6 8 6 4 4 5 5 2 1 0 3 5 5 6 4 5 11 13 19 27 28 28 27 24 26 28 29 31 31
19 20 23 24 22 20 18 18 19 19 26 31 18 7 9 8 5 5 6 6 3 1 1 0 4 6 8 7 6 10 7 3 7 9 6 6 4 6 8 8 10 8 4 5 5 5 9 8 5 11 11 11 10 8 3 5 4 4 3 5 6 6 5 2 1 4 3 1 1 4 3 4 6 6 5 5 4 9 18 24 29 32 31 31 31 31 31 29
17 19 21 22 21 18 15 17 18 19 27 25 9 7 9 5 5 6 5 7 6 3 2 1 2 3 4 4 5 9 7 2 6 8 6 6 7 9 10 8 11 12 8 7 4 3 8 8 2 5 8 8 11 10 8 6 5 2 4 7 3 1 3 3 2 1 3 3 3 4 5 4 5 10 9 8 6 5 8 12 18 27 33 33 32 34 34 30
17 18 19 20 19 15 15 17 15 19 26 18 7 8 4 2 5 6 4 6 6 6 4 1 2 3 3 3 4 9 8 4 7 8 6 5 6 10 11 8 11 14 13 10 5 1 6 6 1 5 7 7 7 9 7 5 4 3 5 5 1 2 1 2 3 3 2 4 4 6 9 7 5 8 5 5 10 9 7 8 12 19 24 26 29 33 34 30
16 17 17 17 15 14 16 16 14 20 23 11 7 11 4 2 4 3 4 6 5 6 5 5 5 4 4 4 4 7 9 7 7 8 7 5 4 10 14 9 10 18 19 14 5 2 4 4 4 2 5 4 7 8 4 3 2 4 2 1 2 2 3 2 4 4 3 5 5 7 9 7 7 8 3 3 11 10 8 8 9 11 15 21 28 30 26 24
14 13 11 11 13 14 15 14 16 22 16 5 8 11 3 2 4 6 6 4 6 6 5 7 5 2 3 4 3 6 10 10 7 7 7 5 3 9 16 11 9 17 21 14 6 2 3 4 5 3 1 4 5 5 7 6 2 1 1 1 1 2 3 4 4 3 4 6 6 6 6 4 6 9 5 6 9 8 9 9 7 11 17 22 26 23 20 19
12 7 3 6 11 13 13 14 18 18 9 4 7 5 1 1 5 13 18 10 3 4 5 7 6 4 4 3 2 4 9 11 9 6 6 6 4 5 13 13 8 12 16 13 6 0 3 4 5 2 1 3 5 6 11 12 6 3 3 3 3 2 1 1 3 3 3 4 6 7 6 5 4 5 7 9 8 9 11 10 9 11 15 16 15 14 14 12
10 4 1 3 8 13 14 14 13 8 4 4 4 2 2 2 3 11 21 20 9 4 3 3 4 6 6 5 3 2 3 6 8 7 5 6 6 4 10 15 11 10 12 10 7 3 2 4 5 2 2 4 5 4 6 8 7 7 7 6 6 6 3 2 3 3 2 3 5 5 6 5 4 3 4 6 5 6 8 7 7 9 9 8 7 7 8 8
8 2 1 3 9 16 17 10 5 3 3 4 3 2 3 3 2 6 12 15 10 4 2 2 2 5 6 6 5 4 3 2 6 8 5 7 9 5 7 15 16 14 11 9 8 5 1 2 3 2 3 4 3 1 1 1 5 6 8 7 6 5 6 6 5 2 1 3 4 3 4 5 4 3 3 4 5 6 7 5 6 8 6 6 6 6 8 8
5 3 2 3 10 17 14 5 3 4 4 2 1 2 3 2 3 4 6 8 6 2 2 2 2 3 3 3 3 5 6 4 5 8 6 6 9 6 5 12 16 15 10 7 7 5 1 2 3 2 2 1 2 3 3 3 2 3 6 6 6 7 8 7 4 1 1 4 5 4 4 3 3 3 3 4 5 7 7 6 8 9 6 6 7 6 8 9
3 2 2 2 12 17 10 2 3 5 4 2 0 3 4 3 3 6 6 6 4 2 3 2 1 2 1 1 1 2 6 6 6 9 7 4 5 6 9 15 17 13 9 8 9 9 7 4 4 3 1 1 2 3 2 1 2 4 5 7 9 10 8 3 0 0 1 3 5 5 5 4 3 4 3 3 5 5 5 4 6 8 6 6 6 5 7 9
2 1 3 2 12 17 8 0 2 4 4 4 4 5 5 4 4 6 8 6 5 4 3 2 2 3 2 2 2 1 4 5 4 6 6 4 3 3 10 19 19 12 9 10 13 13 7 4 6 8 6 6 8 7 5 3 4 3 2 5 8 10 11 6 4 6 5 3 4 4 4 5 5 6 5 5 5 6 6 6 4 2 4 6 7 7 8 9
2 0 3 3 5 10 7 3 2 2 2 3 5 5 6 5 3 4 6 6 5 4 3 1 3 4 2 4 4 3 6 6 4 3 5 5 3 2 8 19 21 16 12 11 15 12 4 2 7 9 11 10 8 5 3 6 5 3 4 8 9 9 11 9 7 8 6 4 4 4 3 5 7 7 7 6 3 3 5 6 4 1 4 7 8 9 9 9
1 1 1 2 2 2 4 5 3 2 2 3 3 3 8 7 2 1 4 4 5 5 3 2 2 4 4 5 4 4 6 6 6 6 6 6 4 3 5 13 16 18 14 10 12 8 2 4 10 11 15 15 8 4 5 8 9 9 10 11 10 9 10 11 10 10 8 6 9 8 5 7 10 9 10 10 7 5 6 5 5 5 7 8 9 10 11 11
1 2 2 1 1 1 2 4 6 6 4 4 2 2 7 8 5 4 3 1 3 6 3 1 3 6 7 7 4 3 4 5 7 8 6 5 4 2 3 5 7 14 14 9 10 6 2 6 10 10 15 16 8 4 5 7 8 10 11 12 11 10 11 13 14 14 11 8 10 9 7 11 15 12 11 13 13 10 9 9 9 9 11 12 13 14 14 14
2 4 3 2 2 3 5 6 8 8 7 6 3 3 6 9 8 5 2 2 2 5 5 4 6 8 8 7 5 3 5 5 6 7 6 6 5 4 3 2 4 10 11 8 8 6 3 6 7 9 13 14 8 5 5 6 6 7 10 13 12 12 14 15 14 14 13 11 11 9 8 12 13 7 8 11 8 7 8 8 9 11 15 17 17 17 16 16
4 5 4 4 4 7 9 7 5 5 6 6 4 3 5 8 10 5 2 4 4 3 5 8 8 7 8 8 8 7 8 8 6 5 4 5 5 4 5 4 3 4 7 7 5 4 5 6 5 7 8 10 8 8 7 8 7 7 8 8 9 10 12 13 13 12 11 11 13 13 11 10 9 4 7 9 5 4 5 6 10 15 18 20 20 20 20 18
8 8 6 4 3 5 6 4 2 2 3 4 4 3 2 5 7 5 3 7 8 6 7 10 8 5 5 8 11 12 12 11 10 8 6 7 8 5 4 4 6 6 6 6 3 3 4 3 2 6 5 8 7 10 10 7 4 6 7 6 7 8 9 11 12 11 12 12 13 14 11 10 10 7 9 10 7 5 6 9 14 18 21 23 23 22 19 16
10 10 6 3 3 3 3 2 1 2 2 3 5 5 3 5 6 5 3 7 10 11 11 11 8 4 4 9 14 17 18 18 17 14 10 11 13 11 11 8 7 8 7 5 2 2 5 3 2 5 6 6 3 8 8 3 2 8 11 12 13 11 11 11 9 10 13 12 10 10 10 12 12 8 9 11 8 6 8 13 18 21 21 21 21 19 17 16
Wind_Direction
285 278 274 274 275 278 280 280 278 276 273 268 264 262 264 268 271 274 275 274 273 273 273 276 282 288 293 299 300 297 290 284 279 272 264 263 264 261 258 254 250 254 264 265 266 272 270 263 259 256 259 260 262 252 243 236 196 170 110 127 201 187 197 190 188 199 162 268 265 196 187 174 183 194 185 189 200 202 193 199 214 209 213 224 211 213 208 200
292 287 280 275 273 274 276 278 277 275 274 271 266 261 261 264 267 271 274 276 274 272 271 270 275 283 289 295 299 299 294 291 287 277 271 270 270 264 259 256 251 248 258 265 269 277 276 272 266 259 258 252 244 235 228 213 188 177 121 149 219 197 209 202 186 199 193 265 252 193 189 186 193 182 175 188 193 177 190 212 220 215 217 217 209 214 213 204
292 289 286 280 275 273 273 274 275 274 272 271 267 263 260 261 264 268 272 276 275 273 271 266 270 279 284 291 298 299 299 299 293 285 282 278 272 267 262 256 250 246 250 256 262 269 273 272 268 263 256 244 232 225 216 192 191 196 158 190 239 209 228 244 220 231 255 260 246 193 188 193 196 180 177 186 168 170 202 212 210 218 219 212 209 213 209 205
290 289 288 285 280 275 273 272 272 273 271 271 269 265 262 260 262 265 267 271 274 274 271 268 265 270 279 287 296 297 305 310 300 291 284 279 277 274 267 255 246 244 247 251 255 258 263 264 261 260 252 242 228 223 217 194 193 190 172 200 230 189 211 251 238 255 276 258 234 194 176 189 188 178 182 168 137 236 232 217 214 225 224 212 210 211 206 206
288 287 286 285 282 278 275 271 270 269 268 269 268 266 264 261 259 262 264 265 270 273 271 269 264 265 274 281 290 293 312 326 309 281 280 288 288 269 242 231 228 234 241 245 249 251 254 256 258 256 247 242 215 210 221 205 192 173 204 218 197 162 186 247 246 267 285 271 199 173 162 187 178 181 192 173 163 227 230 226 226 234 235 223 220 213 206 207
286 284 283 283 282 280 277 273 271 269 267 267 266 265 264 262 259 259 261 262 265 270 270 268 264 262 265 273 280 273 254 250 104 66 334 321 291 199 158 183 209 224 231 235 242 247 249 250 252 242 227 241 213 202 213 207 198 200 236 223 203 193 200 237 245 262 270 312 164 175 199 189 169 191 202 192 205 219 231 243 234 235 237 231 227 218 213 212
287 285 283 281 281 281 278 275 272 269 268 265 264 264 264 264 261 258 258 259 260 265 269 267 264 259 257 262 264 253 228 233 241 53 37 33 117 132 130 166 205 228 225 227 234 238 243 241 236 230 212 236 226 217 221 214 205 213 241 216 212 218 222 234 241 250 253 259 287 264 220 193 180 199 201 208 223 225 244 261 236 231 227 226 224 222 224 224
288 287 284 282 280 280 280 278 273 270 268 266 265 264 264 264 262 261 258 258 258 260 265 267 265 258 253 250 251 246 236 242 249 256 316 6 124 129 106 140 329 274 232 228 228 229 237 234 230 227 215 233 228 221 222 223 222 220 228 215 208 220 228 236 240 246 254 260 276 265 225 212 197 194 197 219 229 228 239 250 230 222 218 220 220 222 228 228
287 286 284 283 281 280 280 280 276 272 270 268 266 264 264 263 262 262 259 259 257 256 261 265 265 259 252 244 240 241 248 256 262 258 263 271 239 220 275 280 305 318 280 238 227 227 231 230 230 224 237 270 248 238 217 211 231 223 223 220 207 219 229 233 232 240 251 256 256 232 241 233 195 186 226 228 228 224 226 227 217 212 214 219 221 223 227 230
287 283 283 282 281 280 278 278 278 275 272 269 268 265 264 262 262 262 259 259 257 254 256 260 265 260 249 241 229 234 256 265 272 266 260 253 249 249 261 272 284 293 305 268 232 228 226 226 233 228 253 282 254 244 232 205 247 260 233 229 226 228 235 227 222 235 245 252 236 209 237 236 187 180 238 229 223 219 217 218 222 222 218 220 225 226 227 231
288 285 284 282 280 281 278 278 276 274 272 270 269 266 264 262 262 261 259 259 256 255 254 255 262 258 252 243 224 227 253 263 267 272 270 254 247 247 254 262 271 276 287 292 250 234 229 227 229 228 246 273 271 270 266 242 266 298 255 240 253 246 254 242 212 224 224 247 233 211 234 246 180 184 228 220 215 221 221 223 229 230 229 227 229 230 231 232
289 287 286 283 281 280 279 278 275 273 271 269 269 267 265 262 260 261 259 259 256 254 253 254 260 261 261 249 235 237 252 261 262 266 271 266 256 252 254 257 262 267 273 287 276 248 236 228 223 221 234 268 289 282 294 280 267 288 272 228 275 271 265 238 216 216 197 223 229 197 252 262 205 218 228 223 215 221 224 227 232 232 234 233 232 234 234 235
287 287 287 284 282 280 279 278 275 274 271 269 268 266 264 261 260 260 258 259 257 254 252 252 258 262 263 256 249 249 255 259 258 260 264 265 269 264 260 261 260 259 265 277 282 267 244 232 223 222 237 265 275 255 307 315 262 246 220 172 275 294 265 230 214 201 186 214 200 167 229 240 212 228 227 224 220 219 221 227 233 234 237 237 237 239 238 238
287 286 286 284 282 280 279 280 278 277 273 271 268 265 263 261 260 259 258 259 257 256 252 250 255 259 256 258 261 259 256 255 252 254 259 260 266 268 264 264 259 257 262 265 263 266 244 233 225 225 241 250 258 292 317 330 275 189 196 212 192 211 265 233 198 172 176 227 190 167 235 235 222 236 225 220 223 223 224 228 235 235 236 239 240 242 244 243
289 287 286 285 283 281 280 280 280 279 277 273 269 266 262 260 259 256 256 256 255 255 252 249 251 255 260 262 267 267 258 252 249 253 257 257 258 259 260 262 258 254 255 252 248 244 225 218 216 216 235 246 247 295 341 336 330 142 195 223 205 211 278 285 199 175 183 219 184 174 235 248 248 242 224 219 222 224 227 230 234 235 237 238 239 241 244 247
290 287 286 284 282 281 279 278 278 278 277 276 272 267 262 259 259 255 252 251 252 253 250 250 253 253 263 269 266 265 256 249 250 255 254 249 249 251 252 255 255 246 242 241 239 236 218 201 206 209 209 219 207 156 26 327 297 263 210 211 210 208 239 288 245 197 192 184 187 200 226 241 246 235 225 221 221 222 225 232 234 235 238 237 237 240 244 249
289 288 286 284 282 279 277 277 276 275 276 276 273 268 263 260 258 256 252 250 250 251 247 244 254 258 255 260 262 254 249 248 250 253 251 247 245 245 244 244 252 240 229 231 231 230 215 195 192 204 202 191 154 138 149 239 229 234 220 220 225 205 206 217 297 229 200 188 209 221 227 224 249 238 224 220 219 219 220 231 237 236 239 240 240 244 247 252
289 287 286 284 282 277 274 274 273 273 273 273 272 267 264 263 262 259 254 251 249 251 253 238 233 258 254 250 255 252 252 255 252 249 250 247 240 239 237 234 248 250 228 229 227 218 206 190 180 182 181 181 172 171 202 219 211 200 199 217 231 223 217 208 234 215 179 211 225 209 226 232 256 272 236 222 218 218 219 227 235 237 238 240 242 246 249 252
291 287 284 283 281 277 273 272 271 270 269 269 268 267 269 269 267 264 256 250 240 231 244 228 215 218 255 306 267 252 251 255 257 251 246 242 235 235 231 226 237 253 231 212 216 209 196 178 181 187 184 194 197 197 209 215 195 194 201 213 213 215 238 224 247 232 171 196 228 214 225 227 231 248 245 234 224 220 225 229 234 238 239 240 244 248 251 255
296 289 284 282 279 275 271 270 270 268 266 264 262 266 271 264 263 268 252 243 238 229 231 228 217 224 239 350 12 276 239 240 246 247 245 238 227 225 220 214 226 247 235 197 197 200 196 198 200 204 206 203 204 208 217 259 98 193 204 223 212 203 250 238 244 264 196 192 227 222 229 230 222 230 237 237 232 225 228 231 235 237 239 241 244 248 253 258
298 291 285 280 277 273 268 266 267 265 262 259 255 254 250 232 220 255 240 241 245 239 240 243 238 239 241 256 329 28 217 227 226 232 241 228 215 209 200 195 207 234 225 218 214 188 197 215 214 213 214 205 202 205 216 243 235 159 158 219 223 198 243 239 213 255 202 191 235 227 233 241 227 226 238 236 231 228 226 227 231 233 236 239 242 248 254 258
301 293 285 279 274 271 266 262 262 260 256 254 250 246 243 236 235 250 267 276 265 249 243 244 245 248 246 246 260 321 69 237 229 227 223 204 202 201 184 181 196 216 212 218 225 208 206 226 225 220 213 196 197 197 206 225 231 260 111 199 226 200 234 283 238 248 146 187 243 231 233 248 240 231 241 237 230 231 229 228 230 230 232 236 241 250 257 259
307 298 289 280 273 269 264 258 256 252 247 246 246 243 245 247 245 254 266 282 280 260 244 240 239 243 246 246 244 241 241 248 236 226 213 193 194 197 180 173 199 210 204 206 214 218 210 231 231 219 193 192 201 194 199 221 232 236 220 208 234 185 179 252 255 238 206 202 215 240 256 263 257 246 245 242 238 237 237 238 239 239 238 240 244 252 257 258
310 303 293 283 275 269 263 257 251 245 243 245 247 245 246 249 247 255 262 266 278 259 246 244 239 239 242 244 241 235 235 243 242 225 208 192 186 190 186 183 195 204 208 212 217 227 233 247 210 185 185 196 196 184 190 208 226 229 224 223 236 181 188 238 253 213 255 272 185 250 291 275 236 234 244 245 242 241 240 242 245 245 245 246 248 251 254 256
310 306 296 285 277 271 266 261 249 240 241 244 245 244 246 248 248 254 262 276 274 252 249 243 237 242 240 239 235 224 219 242 244 230 207 198 188 179 189 191 188 204 212 213 217 228 240 245 164 180 194 187 187 192 193 198 219 233 224 220 218 174 186 217 156 158 211 264 248 152 261 271 231 221 232 233 234 238 234 235 240 242 243 244 245 247 250 253
308 306 296 283 278 274 268 263 250 240 238 239 240 241 244 244 245 245 229 267 275 217 213 209 210 237 232 218 213 202 197 240 243 240 222 209 198 184 185 183 177 212 208 209 224 230 241 234 188 197 200 180 190 205 197 190 209 236 218 199 188 160 186 191 169 171 189 239 278 132 220 266 280 223 229 220 229 237 226 225 235 237 239 240 242 245 247 248
302 302 294 280 276 273 262 255 251 241 231 235 239 238 239 235 233 236 183 268 259 170 154 179 186 209 212 198 185 175 184 230 234 242 234 215 202 191 189 181 188 217 187 170 219 210 213 218 205 198 199 188 196 205 193 184 205 239 154 145 170 186 193 177 165 201 219 239 327 23 215 266 272 246 226 206 229 247 236 231 239 236 237 240 241 244 245 246
297 298 292 276 271 268 260 252 247 240 232 237 239 232 232 226 218 202 128 265 246 142 150 186 188 193 193 185 178 179 193 168 190 237 228 214 201 191 195 200 194 198 167 172 211 220 193 216 212 197 203 205 204 210 188 178 207 227 138 148 184 194 173 141 165 206 233 103 266 282 89 263 264 253 208 197 223 249 243 232 238 236 237 240 242 244 245 246
292 292 286 274 268 263 259 252 242 239 239 238 233 226 221 213 199 143 172 257 352 55 14 167 187 189 169 166 180 191 196 160 142 209 209 204 197 191 215 210 191 141 171 200 216 230 236 220 215 193 203 222 214 218 183 180 206 193 150 149 161 172 170 170 180 167 89 230 224 216 165 232 263 248 187 197 220 240 245 233 233 235 236 239 242 244 246 247
289 286 279 269 262 256 255 248 237 237 238 231 225 214 194 187 170 114 224 241 62 113 66 124 181 170 154 152 183 195 188 176 164 158 183 195 195 197 204 190 167 115 187 256 240 237 282 24 230 193 209 216 204 221 198 195 196 147 134 114 102 148 173 161 153 131 194 245 224 209 187 198 260 249 194 203 216 227 241 236 231 233 235 239 243 245 247 248
287 281 271 258 253 251 248 240 232 232 232 227 214 188 170 166 152 196 218 157 52 196 101 137 192 145 159 164 174 187 187 188 163 150 174 194 195 198 175 151 147 123 189 241 252 243 250 266 255 225 215 192 174 197 263 231 196 145 135 137 126 115 115 107 140 174 212 241 223 209 192 186 239 244 192 221 243 232 236 236 231 228 231 237 242 245 247 248
285 275 263 249 246 247 242 238 235 227 222 218 198 170 155 164 196 199 208 60 49 222 176 165 164 148 177 184 178 179 179 187 176 167 183 183 189 196 191 179 169 164 196 211 226 234 239 236 228 282 269 182 171 183 95 27 275 201 136 147 174 190 179 188 199 192 214 239 224 186 178 192 242 251 243 254 263 256 245 238 233 231 233 237 240 242 244 245
281 268 253 239 240 243 240 239 233 221 211 199 183 161 148 229 203 187 197 179 214 225 350 145 167 162 176 188 200 190 185 185 176 186 198 188 191 199 201 196 178 173 181 196 214 228 247 244 205 232 271 210 191 181 183 179 197 202 166 165 188 188 190 202 200 204 219 237 260 148 167 206 258 257 244 242 244 247 252 253 252 250 247 248 250 249 248 246
274 257 242 233 236 238 236 230 219 219 205 187 174 158 173 219 195 178 197 215 253 240 277 319 161 161 177 191 189 178 196 219 184 182 194 183 188 199 201 206 193 182 118 164 205 203 221 239 196 194 202 184 195 208 194 155 173 202 194 184 196 192 201 206 194 203 202 227 303 157 167 198 222 234 236 237 241 244 247 251 254 257 258 259 262 260 256 254
264 247 233 228 229 226 227 222 213 214 199 181 171 178 191 196 183 180 204 211 234 251 221 296 131 158 196 199 184 176 184 226 190 186 194 184 191 189 190 204 199 189 151 166 203 190 213 247 220 205 197 165 184 216 167 121 167 204 207 208 213 208 217 237 178 178 153 112 186 192 218 221 232 287 297 267 279 258 248 247 248 252 255 257 261 262 261 259
250 235 225 224 224 219 221 218 208 206 195 182 186 217 194 195 184 176 191 186 191 195 134 72 120 164 216 196 192 193 180 176 190 199 209 192 199 196 190 202 196 193 187 181 192 163 199 242 244 184 203 186 188 192 171 171 189 165 192 210 219 227 203 207 270 167 137 207 202 183 242 269 280 287 269 241 256 276 263 251 242 245 248 250 253 257 259 259
233 221 215 215 218 217 217 213 203 198 193 186 218 226 194 244 205 181 172 163 177 181 154 233 206 165 208 209 201 195 185 190 194 203 206 181 201 200 192 206 198 199 207 198 208 189 186 233 253 151 206 224 182 163 165 194 197 169 198 204 94 36 100 129 240 231 157 232 223 187 221 231 232 264 272 222 226 236 248 248 244 246 248 252 253 252 255 259
222 209 205 206 212 214 213 213 203 195 190 183 231 227 205 231 212 184 163 143 149 162 162 223 212 168 191 203 213 195 185 192 189 196 204 189 209 190 182 200 199 202 212 205 218 267 174 224 286 176 191 181 128 134 168 234 221 186 192 81 86 217 226 153 212 227 189 226 234 204 217 213 205 234 268 220 219 220 232 244 252 253 248 250 252 252 256 261
209 196 200 211 213 214 215 210 195 193 193 192 230 224 207 202 208 209 203 140 119 153 191 223 208 206 218 192 202 198 191 197 185 187 204 198 212 190 183 190 195 203 209 197 199 256 162 201 274 316 162 147 129 155 201 212 212 157 151 82 108 221 232 193 206 231 197 215 235 222 216 217 221 226 213 212 218 207 221 239 243 246 244 245 252 260 264 264
186 167 192 218 208 210 210 195 185 191 201 217 226 230 234 186 204 211 214 207 147 155 207 218 193 204 223 187 188 209 204 205 189 187 207 189 193 208 191 187 190 198 196 189 202 252 97 201 241 308 345 174 166 186 206 206 191 174 198 187 172 191 291 277 228 221 177 200 228 234 235 243 245 216 191 206 212 196 209 226 228 241 252 253 257 264 262 257
166 121 14 204 194 195 188 179 181 190 216 229 238 272 259 234 194 199 205 207 208 204 195 194 189 203 213 205 205 194 209 221 204 200 210 195 204 227 199 194 189 173 172 187 212 195 138 199 202 181 181 194 198 196 212 210 180 177 204 203 194 201 219 270 232 200 170 201 213 226 248 259 255 221 204 222 226 212 222 235 241 258 271 267 253 243 240 234
158 93 49 169 182 182 176 178 189 179 204 229 246 241 223 229 200 194 200 200 206 216 153 123 190 202 212 226 218 169 154 247 234 214 213 212 213 220 206 197 181 161 163 187 201 191 125 136 153 200 208 201 231 278 2 163 156 179 214 208 190 197 208 228 237 209 194 224 215 225 257 267 263 237 236 255 259 261 266 267 263 268 268 250 241 230 227 221
143 93 84 164 181 176 171 189 220 193 220 265 345 248 237 229 186 188 199 200 201 202 166 161 206 201 206 230 210 175 173 196 232 227 232 234 221 219 203 183 167 157 164 184 188 186 170 122 149 249 297 297 297 319 359 31 106 190 225 206 187 198 206 220 237 161 157 221 213 230 249 263 291 273 254 271 284 285 282 268 260 264 253 238 244 236 222 212
98 65 39 173 181 177 173 200 213 217 254 287 356 250 250 254 204 188 200 206 199 173 166 173 202 186 174 122 143 190 187 191 218 225 232 261 235 203 178 172 169 168 180 188 176 173 187 188 172 188 259 248 242 252 262 294 196 204 218 209 203 201 194 184 353 138 282 235 200 214 237 239 281 312 328 338 336 323 315 302 270 260 239 217 213 200 194 191
81 13 338 245 188 185 187 213 183 212 249 253 246 242 234 244 232 209 208 204 192 172 166 195 175 149 151 145 138 200 210 214 236 222 222 253 268 205 177 176 177 184 206 193 164 162 183 202 185 192 204 204 209 219 212 188 195 200 215 213 208 199 188 186 225 228 232 235 192 198 233 258 300 325 336 353 2 350 346 358 349 261 195 180 172 170 175 174
68 312 325 316 207 197 212 244 206 189 217 231 240 226 204 222 262 227 203 200 203 171 124 151 162 136 160 174 162 200 218 221 244 255 240 223 227 278 189 180 180 190 206 186 158 157 174 214 200 209 219 218 213 210 146 117 148 199 207 204 205 200 193 197 227 233 230 253 245 212 218 284 296 295 295 312 351 341 325 339 356 105 165 168 161 162 170 173
30 207 214 342 313 228 238 254 235 211 204 205 225 216 197 200 226 208 190 215 224 185 115 16 176 167 188 178 173 211 206 198 216 245 258 227 221 299 207 186 186 186 184 174 167 158 94 211 210 218 228 229 218 191 157 143 166 197 205 208 208 193 188 198 218 227 225 239 247 229 208 251 262 260 275 288 291 282 272 262 250 204 176 176 172 172 179 181
308 282 234 238 268 194 214 239 221 223 231 212 237 252 199 191 192 190 181 257 239 197 177 307 231 197 182 158 157 202 183 188 217 226 240 224 209 237 195 192 205 189 173 166 179 163 106 219 213 214 232 237 223 197 191 173 182 195 200 209 206 185 187 202 216 225 220 223 247 240 206 230 249 251 257 270 278 276 262 248 237 209 186 185 185 184 186 186
322 321 295 264 260 247 261 246 213 211 217 207 224 248 209 204 206 201 141 100 232 221 206 222 228 211 190 165 159 184 178 191 222 220 213 211 207 199 178 181 226 201 181 173 188 178 175 225 209 199 233 244 227 210 202 182 199 213 206 209 202 188 193 203 214 224 221 223 245 246 217 229 249 248 236 253 269 264 254 245 220 200 193 195 194 193 195 193
347 333 305 288 273 260 264 256 217 209 210 202 220 241 220 214 211 208 178 167 183 225 218 219 218 203 195 186 187 209 209 202 228 230 184 192 214 207 200 196 171 186 191 189 199 191 195 223 185 166 224 246 219 214 215 192 200 223 223 221 208 194 199 207 213 219 219 224 237 242 239 245 253 246 241 254 253 198 214 225 214 206 204 204 201 198 199 200
338 331 309 286 271 251 249 246 196 206 219 208 220 239 247 231 215 211 227 210 197 190 200 211 206 181 196 205 207 220 215 203 221 229 194 209 235 236 238 213 142 148 201 205 186 163 186 229 94 126 211 241 206 204 218 213 224 257 257 238 205 193 202 209 210 209 207 212 226 236 243 249 247 236 239 248 234 200 202 208 215 217 212 209 207 205 208 219
326 330 313 265 259 251 235 243 189 206 227 209 206 211 218 225 213 199 230 242 226 214 211 206 190 166 200 214 217 224 220 214 223 230 228 244 253 250 249 234 172 163 192 190 160 154 168 175 100 142 203 250 213 183 194 191 256 262 249 221 203 199 204 209 217 216 207 202 212 223 228 238 238 218 219 235 227 218 224 219 224 229 221 215 217 223 235 247